Regional Weather Roundup
Issued by NWS

Home | Current Version | Previous Version | Graphics & Text | Print | Product List | Glossary On
Versions: 1 2 3 4 5 6 7 8 9 10 11 12 13 14 15 16 17 18 19 20 21 22 23 24 25 26 27 28 29 30 31 32 33 34 35 36 37 38 39 40 41 42 43 44 45 46 47 48 49 50
000
ASUS43 KMPX 282301
RWRMN
WEATHER ROUNDUP FOR MINNESOTA
NATIONAL WEATHER SERVICE TWIN CITIES/CHANHASSEN MN
600 PM CDT MON JUL 28 2014


NOTE: "FAIR" INDICATES FEW OR NO CLOUDS BELOW 12,000 FEET WITH NO
SIGNIFICANT WEATHER AND/OR OBSTRUCTIONS TO VISIBILITY. N/A MEANS
CURRENT SKY AND/OR WEATHER CONDITIONS ARE NOT AVAILABLE.

MNZ060>063-068>070-290000-
   Twin Cities Metro

CITY           SKY/WX    TMP DP  RH WIND       PRES   REMARKS
TWIN CITIES    MOSUNNY   74  51  44 W10       30.14F
ST PAUL        PTSUNNY   75  52  44 NW10      30.14F
CRYSTAL        SUNNY     76  52  43 NW7       30.13F
BLAINE         MOSUNNY   75  52  43 N10       30.15S
LAKEVILLE      PTSUNNY   72  54  53 NW12      30.15F
EDEN PRAIRIE   MOSUNNY   74  54  49 NW8       30.14F
SOUTH ST PAUL  MOSUNNY   74  51  43 NW8       30.14S
LAKE ELMO      FAIR      72  54  53 NW6       30.15F
$$
MNZ001>005-007-008-013>017-022>024-027-028-290000-
   Northwest Minnesota

CITY           SKY/WX    TMP DP  RH WIND       PRES   REMARKS
BEMIDJI        MOSUNNY   71  53  52 N9        30.19F
HALLOCK        SUNNY     75  52  43 N7        30.19F
ROSEAU           N/A     75  57  53 W8        30.17F
WARROAD        PTSUNNY   73  59  60 CALM      30.17F
THIEF RVR FALL MOSUNNY   72  54  53 NW8       30.20F
CROOKSTON      SUNNY     73  54  49 N9        30.21F
FOSSTON        MOSUNNY   73  54  49 NW7       30.21F
DETROIT LAKES  SUNNY     72  52  49 N12       30.23F
MOORHEAD       MOSUNNY   72  55  56 N5        30.22F
PARK RAPIDS    SUNNY     72  51  47 NW9       30.19F
$$
MNZ006-009>011-018-025>026-290000-
   North Central Minnesota

CITY           SKY/WX    TMP DP  RH WIND       PRES   REMARKS
BAUDETTE       SUNNY     74  54  49 NW9       30.17F
FLAG ISLAND    SUNNY     75  52  43 NW6       30.14F
INTL FALLS     SUNNY     74  54  49 NW10      30.12F
WASKISH        SUNNY     73  54  49 CALM      30.16F
BIG FORK       MOSUNNY   73  54  49 NW2       30.15F
LONGVILLE      SUNNY     72  55  56 NW3       30.17F
GRAND RAPIDS   MOSUNNY   73  52  46 NW13      30.15F
CRANE LAKE     MOSUNNY   72  55  56 NW5       30.12F
ORR            MOSUNNY   73  52  46 NW7       30.10F
COOK           MOSUNNY   73  54  49 NW8       30.12F
$$
MNZ012-019>021-037-290000-
   Northeast Minnesota

CITY           SKY/WX    TMP DP  RH WIND       PRES   REMARKS
DULUTH         PTSUNNY   73  52  47 NW12      30.11F
ELY            MOSUNNY   70  54  56 NW9       30.10S
HIBBING        SUNNY     75  53  46 NW10      30.13F
EVELETH        MOSUNNY   72  52  49 NW9       30.12F
DULUTH HARBOR  PTSUNNY   73  55  53 W9        30.10F
TWO HARBORS    MOSUNNY   73  54  49 NW5       30.07F
SILVER BAY     SUNNY     72  57  60 NW5       30.06F
GRAND MARAIS     N/A     58  50  75 CALM      30.03S
G MARAIS ARPRT MOSUNNY   66  54  63 NW7       30.08F
$$
MNZ029>031-032-039>041-046>048-054>057-064-290000-
   West Central Minnesota

CITY           SKY/WX    TMP DP  RH WIND       PRES   REMARKS
FERGUS FALLS   SUNNY     72  46  40 NW9       30.21F
WHEATON        CLOUDY    70  54  56 W8        30.24F
MORRIS         PTSUNNY   72  55  56 NW12      30.21F
ALEXANDRIA     MOSUNNY   73  51  46 NW13      30.22F
ELBOW LAKE     CLOUDY    69  53  56 NW9       30.21F
WADENA         SUNNY     72  54  53 NW9       30.20F
GLENWOOD       MOSUNNY   73  52  46 NW9       30.21F
APPLETON       SUNNY     73  52  46 NW9       30.21F
BENSON         MOSUNNY   73  54  49 N10       30.21F
ORTONVILLE     MOSUNNY   70  52  52 N6        30.23F
MADISON        SUNNY     72  55  56 NW10      30.22F
WILLMAR        FAIR      75  50  41 NW12      30.21F
$$
MNZ033>034-036-042>043-049>051-058-059-290000-
   Central Minnesota

CITY           SKY/WX    TMP DP  RH WIND       PRES   REMARKS
ST CLOUD       PTSUNNY   75  52  44 NW9       30.16F
SAUK CENTRE    FAIR      73  53  49 NW10      30.20S
PAYNESVILLE    PTSUNNY   73  51  46 W8G16     30.19F
AITKIN         SUNNY     75  55  50 NW5       30.15F
PINE RIVER     SUNNY     73  54  49 N7        30.20F
BRAINERD       SUNNY     73  52  47 N9        30.17F
STAPLES        PTSUNNY   70  54  56 NW8       30.19F
LONG PRAIRIE   FAIR      70  52  52 NW10      30.20S
LITTLE FALLS   MOSUNNY   72  50  46 N7        30.18S
LITCHFIELD     MOSUNNY   73  55  53 N7        30.19S
BUFFALO        PTSUNNY   73  52  47 W6        30.17S
MAPLE LAKE     MOSUNNY   73  56  53 NW7       30.17F
$$
MNZ037-044-045-052-053-290000-
   East Central Minnesota

CITY           SKY/WX    TMP DP  RH WIND       PRES   REMARKS
PRINCETON      SUNNY     73  54  49 NW7       30.15F
MORA           MOSUNNY   73  52  46 NW7       30.16F
CAMBRIDGE      SUNNY     77  55  47 NW8       30.13F
RUSH CITY      MOSUNNY   74  52  47 NW6       30.14F
MOOSE LAKE     SUNNY     73  52  46 N6        30.12F
HINCKLEY       MOCLDY    73  55  53 NW5       30.13F
CLOQUET        MOSUNNY   73  52  46 W9        30.12F
MCGREGOR       SUNNY     73  55  53 NW7       30.15F
$$
MNZ071>073-080-081-089-090-097-098-290000-
   Southwest Minnesota

CITY           SKY/WX    TMP DP  RH WIND       PRES   REMARKS
MONTEVIDEO     PTSUNNY   75  54  46 N10       30.22F
GRANITE FALLS  MOSUNNY   73  53  50 NW8       30.22F
CANBY          MOSUNNY   73  51  45 NW8       30.24F
MARSHALL       CLOUDY    72  54  53 N12       30.21F
REDWOOD FALLS  PTSUNNY   74  53  48 N9        30.19F
OLIVIA         PTSUNNY   73  55  53 NW10G16   30.19F
PIPESTONE      MOSUNNY   72  54  53 N6        30.23F
WINDOM         SUNNY     72  54  53 NW10      30.21F
WORTHINGTON    SUNNY     72  54  53 N9        30.23F
JACKSON        MOSUNNY   70  52  52 NW10G17   30.22F
TRACY          PTSUNNY   71  55  57 N9        30.22F
SLAYTON        CLOUDY    68  52  55 CALM      30.23F
$$
MNZ065>067-074>077-082>085-091>093-290000-
   South Central Minnesota

CITY           SKY/WX    TMP DP  RH WIND       PRES   REMARKS
MANKATO        CLOUDY    72  52  49 N9        30.17F
NEW ULM        MOSUNNY   73  54  49 NW12      30.18F
ST JAMES       SUNNY     75  52  43 NW9       30.20F
FAIRMONT       SUNNY     73  52  46 NW10      30.19F
GLENCOE        MOSUNNY   74  51  43 NW12      30.17S
FARIBAULT      MOSUNNY   77  48  36 W8        30.17S
OWATONNA       MOSUNNY   73  54  49 W8        30.17F
WASECA         PTSUNNY   72  50  46 NW9       30.19F
ALBERT LEA     CLOUDY    72  54  53 NW5       30.17F
$$
MNZ078>079-086>088-094>096-290000-
   Southeast Minnesota

CITY           SKY/WX    TMP DP  RH WIND       PRES   REMARKS
ROCHESTER      MOSUNNY   70  52  52 N6        30.17F
RED WING       SUNNY     75  48  38 N7        30.12F
STANTON        PTSUNNY   75  51  42 W6        30.14F
DODGE CENTER   SUNNY     72  54  53 NW9       30.17S
WINONA         SUNNY     73  50  43 NW10      30.14S
AUSTIN         SUNNY     72  52  49 NW8       30.16F
PRESTON        PTSUNNY   69  57  66 N9        30.17S
$$
ABBREVIATIONS USED IN REMARKS
   TC - TEMPERATURES IN CELSIUS
  WCI - WIND CHILL INDEX
   HX - HEAT INDEX
  VSB - VISIBILITY
$$



USA.gov is the U.S. government's official web portal to all federal, state and local government web resources and services.